Weather History for KMRF - November, 2010

Change the Weather History Date:

Monday, November 1, 2010

  Actual Average Record
Temperature  
Mean Temperature 58 °F -  
Max Temperature 78 °F 67 °F 80 °F (2011)
Min Temperature 39 °F 38 °F 26 °F (2005)
Degree Days  
Heating Degree Days 6    
Growing Degree Days 8 (Base 50)    
Moisture  
Dew Point 23 °F    
Average Humidity 30    
Maximum Humidity 52    
Minimum Humidity 11    
Precipitation  
Precipitation 0.00 in - - ()
Sea Level Pressure  
Sea Level Pressure 30.19 in    
Wind  
Wind Speed 7 mph (NW)    
Max Wind Speed 21 mph    
Max Gust Speed 24 mph    
Visibility 10 miles    
Events      
Averages and records for this station are not official NWS values.
T = Trace of Precipitation, MM = Missing Value Source: NWS Daily Summary

Daily Weather History Graph

Daily Weather History Graph

Search for Another Location

Airport or City:

Trip Planner

Search our weather history database for the weather conditions in past years. The results will help you decide how hot, cold, wet, or windy it might be!

Date:

Astronomy

Nov. 01, 2010 Rise Set
Actual Time 8:10 AM CDT 7:08 PM CDT
Civil Twilight 7:45 AM CDT 7:33 PM CDT
Nautical Twilight 7:17 AM CDT 8:01 PM CDT
Astronomical Twilight 6:49 AM CDT 8:29 PM CDT
Moon 3:11 AM CDT (11/1) 3:59 PM CDT (11/1)
Length of Visible Light 11h 47m
Length of Day
10h 57m
Waning Crescent, 26% of the Moon is Illuminated
Nov 1
Waning Crescent
Nov 5
New
Nov 13
First Quarter
Nov 21
Full
Nov 28
Last Quarter

Hourly Weather History & Observations

Time (CDT) Temp. Windchill Dew Point Humidity Pressure Visibility Wind Dir Wind Speed Gust Speed Precip Events Conditions
12:15 AM 46.4 °F - 24.8 °F 43% 30.18 in 10.0 mi Calm Calm - N/A   Clear
12:35 AM 44.6 °F 42.2 °F 24.8 °F 46% 30.18 in 10.0 mi NW 4.6 mph - N/A   Clear
12:55 AM 46.4 °F 41.5 °F 24.8 °F 43% 30.18 in 10.0 mi NW 10.4 mph - N/A   Clear
1:15 AM 46.4 °F 41.5 °F 24.8 °F 43% 30.17 in 10.0 mi NNW 10.4 mph - N/A   Clear
1:35 AM 46.4 °F 42.4 °F 24.8 °F 43% 30.17 in 10.0 mi NNW 8.1 mph - N/A   Clear
1:55 AM 48.2 °F - 24.8 °F 40% 30.17 in 10.0 mi NNW 10.4 mph - N/A   Clear
2:15 AM 48.2 °F - 24.8 °F 40% 30.17 in 10.0 mi NNE 3.5 mph - N/A   Clear
2:35 AM 46.4 °F 43.5 °F 24.8 °F 43% 30.17 in 10.0 mi NNE 5.8 mph - N/A   Clear
2:55 AM 46.4 °F 42.9 °F 24.8 °F 43% 30.17 in 10.0 mi North 6.9 mph - N/A   Clear
3:15 AM 46.4 °F 42.9 °F 24.8 °F 43% 30.17 in 10.0 mi North 6.9 mph - N/A   Clear
3:35 AM 46.4 °F 42.4 °F 24.8 °F 43% 30.17 in 10.0 mi NNW 8.1 mph - N/A   Clear
3:55 AM 46.4 °F 42.4 °F 24.8 °F 43% 30.16 in 10.0 mi North 8.1 mph - N/A   Clear
4:15 AM 46.4 °F 43.5 °F 24.8 °F 43% 30.16 in 10.0 mi NNW 5.8 mph - N/A   Clear
4:35 AM 46.4 °F - 24.8 °F 43% 30.16 in 10.0 mi Calm Calm - N/A   Clear
4:55 AM 46.4 °F 44.3 °F 23.0 °F 40% 30.16 in 10.0 mi NW 4.6 mph - N/A   Clear
5:15 AM 48.2 °F - 24.8 °F 40% 30.17 in 10.0 mi Calm Calm - N/A   Clear
5:35 AM 46.4 °F - 23.0 °F 40% 30.17 in 10.0 mi Calm Calm - N/A   Clear
5:55 AM 42.8 °F 41.1 °F 23.0 °F 46% 30.18 in 10.0 mi WNW 3.5 mph - N/A   Clear
6:15 AM 39.2 °F 35.0 °F 21.2 °F 49% 30.19 in 10.0 mi NNW 5.8 mph - N/A   Clear
6:35 AM 39.2 °F 35.9 °F 21.2 °F 49% 30.20 in 10.0 mi NNW 4.6 mph - N/A   Clear
6:55 AM 41.0 °F 37.1 °F 21.2 °F 45% 30.20 in 8.0 mi NNE 5.8 mph - N/A   Clear
7:15 AM 39.2 °F 34.2 °F 23.0 °F 52% 30.20 in 10.0 mi NNE 6.9 mph - N/A   Clear
7:35 AM 39.2 °F 35.9 °F 23.0 °F 52% 30.21 in 10.0 mi NNW 4.6 mph - N/A   Clear
7:55 AM 39.2 °F - 21.2 °F 49% 30.21 in 10.0 mi Calm Calm - N/A   Clear
8:15 AM 39.2 °F 35.0 °F 21.2 °F 49% 30.21 in 10.0 mi NNW 5.8 mph - N/A   Clear
8:35 AM 39.2 °F 35.9 °F 21.2 °F 49% 30.22 in 10.0 mi NNW 4.6 mph - N/A   Clear
8:55 AM 42.8 °F - 23.0 °F 46% 30.22 in 10.0 mi Calm Calm - N/A   Clear
9:15 AM 48.2 °F - 24.8 °F 40% 30.22 in 10.0 mi Calm Calm - N/A   Clear
9:35 AM 55.4 °F - 26.6 °F 33% 30.24 in 7.0 mi Calm Calm - N/A   Clear
9:55 AM 60.8 °F - 26.6 °F 27% 30.24 in 10.0 mi Calm Calm - N/A   Clear
10:15 AM 64.4 °F - 26.6 °F 24% 30.24 in 10.0 mi Calm Calm - N/A   Clear
10:35 AM 68.0 °F - 26.6 °F 21% 30.24 in 10.0 mi Calm Calm - N/A   Clear
10:55 AM 73.4 °F - 24.8 °F 16% 30.24 in 10.0 mi WNW 9.2 mph - N/A   Clear
11:15 AM 73.4 °F - 23.0 °F 15% 30.24 in 10.0 mi WNW 16.1 mph 20.7 mph N/A   Clear
11:35 AM 73.4 °F - 23.0 °F 15% 30.24 in 10.0 mi WNW 13.8 mph 19.6 mph N/A   Clear
11:55 AM 75.2 °F - 23.0 °F 14% 30.24 in 10.0 mi WNW 12.7 mph 19.6 mph N/A   Clear
12:15 PM 75.2 °F - 23.0 °F 14% 30.23 in 10.0 mi West 13.8 mph 20.7 mph N/A   Clear
12:35 PM 75.2 °F - 23.0 °F 14% 30.23 in 10.0 mi WNW 10.4 mph 20.7 mph N/A   Clear
12:55 PM 77.0 °F - 21.2 °F 12% 30.23 in 10.0 mi West 13.8 mph 19.6 mph N/A   Clear
1:15 PM 77.0 °F - 21.2 °F 12% 30.21 in 10.0 mi WNW 16.1 mph 24.2 mph N/A   Clear
1:35 PM 77.0 °F - 21.2 °F 12% 30.21 in 10.0 mi WNW 20.7 mph - N/A   Clear
1:55 PM 78.8 °F - 21.2 °F 12% 30.20 in 10.0 mi WNW 12.7 mph 21.9 mph N/A   Clear
2:15 PM 78.8 °F - 21.2 °F 12% 30.19 in 10.0 mi West 17.3 mph 23.0 mph N/A   Clear
2:35 PM 78.8 °F - 21.2 °F 12% 30.18 in 10.0 mi WNW 15.0 mph 20.7 mph N/A   Clear
2:55 PM 78.8 °F - 21.2 °F 12% 30.18 in 10.0 mi West 12.7 mph 19.6 mph N/A   Clear
3:15 PM 78.8 °F - 21.2 °F 12% 30.17 in 10.0 mi West 13.8 mph 18.4 mph N/A   Clear
3:35 PM 78.8 °F - 21.2 °F 12% 30.17 in 10.0 mi West 17.3 mph 21.9 mph N/A   Clear
3:55 PM 78.8 °F - 19.4 °F 11% 30.17 in 10.0 mi West 15.0 mph 21.9 mph N/A   Clear
4:15 PM 78.8 °F - 21.2 °F 12% 30.17 in 10.0 mi West 16.1 mph 21.9 mph N/A   Clear
4:35 PM 77.0 °F - 21.2 °F 12% 30.17 in 10.0 mi West 17.3 mph 21.9 mph N/A   Clear
5:15 PM 78.8 °F - 21.2 °F 12% 30.17 in 10.0 mi NW 9.2 mph - N/A   Clear
5:35 PM 77.0 °F - 21.2 °F 12% 30.17 in 10.0 mi WNW 12.7 mph - N/A   Clear
5:55 PM 75.2 °F - 19.4 °F 12% 30.18 in 10.0 mi West 17.3 mph 21.9 mph N/A   Clear
6:15 PM 75.2 °F - 19.4 °F 12% 30.18 in 10.0 mi WNW 13.8 mph 21.9 mph N/A   Clear
6:35 PM 73.4 °F - 19.4 °F 13% 30.19 in 10.0 mi NNW 12.7 mph - N/A   Clear
6:55 PM 66.2 °F - 30.2 °F 26% 30.21 in 10.0 mi NE 8.1 mph - N/A   Clear
7:15 PM 62.6 °F - 30.2 °F 30% 30.21 in 10.0 mi NNE 9.2 mph - N/A   Clear
7:35 PM 60.8 °F - 30.2 °F 31% 30.22 in 10.0 mi NNE 12.7 mph - N/A   Clear
7:55 PM 62.6 °F - 30.2 °F 30% 30.24 in 10.0 mi NE 15.0 mph 20.7 mph N/A   Clear
8:15 PM 60.8 °F - 30.2 °F 31% 30.26 in 10.0 mi NNE 18.4 mph 25.3 mph N/A   Clear
8:35 PM 59.0 °F - 30.2 °F 34% 30.28 in 10.0 mi NE 15.0 mph - N/A   Clear
8:55 PM 59.0 °F - 30.2 °F 34% 30.29 in 10.0 mi NNE 16.1 mph 23.0 mph N/A   Clear
9:15 PM 57.2 °F - 30.2 °F 36% 30.30 in 10.0 mi NNE 15.0 mph 19.6 mph N/A   Clear
9:35 PM 57.2 °F - 32.0 °F 38% 30.31 in 10.0 mi NNE 16.1 mph 23.0 mph N/A   Clear
9:55 PM 57.2 °F - 32.0 °F 38% 30.32 in 10.0 mi NNE 16.1 mph 24.2 mph N/A   Clear
10:15 PM 57.2 °F - 32.0 °F 38% 30.33 in 10.0 mi NNE 19.6 mph 24.2 mph N/A   Clear
10:35 PM 57.2 °F - 33.8 °F 41% 30.35 in 10.0 mi NNE 17.3 mph 27.6 mph N/A   Clear
10:55 PM 55.4 °F - 33.8 °F 44% 30.35 in 10.0 mi NNE 12.7 mph - N/A   Clear
11:15 PM 55.4 °F - 35.6 °F 47% 30.36 in 10.0 mi NNE 15.0 mph 21.9 mph N/A   Clear
11:35 PM 55.4 °F - 35.6 °F 47% 30.37 in 10.0 mi NNE 16.1 mph 21.9 mph N/A   Clear
11:55 PM 53.6 °F - 33.8 °F 47% 30.38 in 10.0 mi NNE 10.4 mph - N/A   Clear